Regional Weather Roundup
Issued by NWS

Home | Current Version | Previous Version | Graphics & Text | Print | Product List | Glossary Off
Versions: 1 2 3 4 5 6 7 8 9 10 11 12 13 14 15 16 17 18 19 20 21 22 23 24 25 26 27 28 29 30 31 32 33 34 35 36 37 38 39 40 41 42 43 44 45 46 47 48 49 50

000
ASUS43 KMKX 152300
RWRWI

WISCONSIN REGIONAL WEATHER ROUNDUP
NATIONAL WEATHER SERVICE MILWAUKEE/SULLIVAN WI
600 PM CDT MON SEP 15 2014

NOTE: "FAIR" INDICATES FEW OR NO CLOUDS BELOW 12,000 FEET WITH NO
SIGNIFICANT WEATHER AND/OR OBSTRUCTIONS TO VISIBILITY.

WIZ001-002-006>008-014>016-023>028-160000-
NORTHWEST WISCONSIN

CITY           SKY/WX    TMP DP  RH WIND       PRES   REMARKS
SUPERIOR ARPT  PTSUNNY   60  37  43 W8        30.16S
ASHLAND        SUNNY     55  37  50 W6        30.16S
HAYWARD        MOSUNNY   56  33  42 VRB5      30.17S
SIREN          SUNNY     58  34  41 NW9       30.18S
RICE LAKE      PTSUNNY   56  35  45 W8        30.19R
LADYSMITH      MOSUNNY   57  38  48 W10       30.17S
EAU CLAIRE     NOT AVBL
MENOMONIE      CLEAR     60  35  39 NW9       30.18S
NEW RICHMOND   SUNNY     56  36  45 NW7       30.19S
OSCEOLA        MOSUNNY   59  38  44 NW9       30.21S
$$

WIZ003>005-009-010-017-018-160000-
NORTH CENTRAL WISCONSIN

CITY           SKY/WX    TMP DP  RH WIND       PRES   REMARKS
WOODRUFF       SUNNY     57  38  48 NW9       30.14R
RHINELANDER    MOSUNNY   55  36  48 VRB7      30.13R
EAGLE RIVER    MOSUNNY   54  35  48 NW10G16   30.12R
LAND O LAKES   SUNNY     54  36  50 NW9G20    30.14R
PHILLIPS       MOSUNNY   54  37  52 NW8       30.14R
TOMAHAWK       SUNNY     56  36  46 NW7       30.13S
MEDFORD        SUNNY     56  37  48 NW12      30.14S
MERRILL        PTSUNNY   58  38  46 NW9       30.12S
$$

WIZ029-030-035-036-043>047-160000-
CENTRAL WISCONSIN

CITY           SKY/WX    TMP DP  RH WIND       PRES   REMARKS
WAUSAU         SUNNY     59  38  45 NW8       30.11R
MOSINEE        MOSUNNY   57  41  54 NW9       30.14R
MARSHFIELD     MOSUNNY   60  39  45 N10       30.13S
STEVENS POINT  PTSUNNY   59  41  52 NW6       30.13S
WAUPACA        PTSUNNY   60  51  70 W6        30.12S
WAUTOMA        NOT AVBL
WISC RAPIDS    LGT RAIN  59  44  57 NW8       30.14S
CAMP DOUGLAS   NOT AVBL
$$

WIZ011>013-019>022-031-037>040-048>050-160000-
NORTHEAST WISCONSIN

CITY           SKY/WX    TMP DP  RH WIND       PRES   REMARKS
ANTIGO         SUNNY     56  42  59 W3        30.11S
STURGEON BAY   PTCLDY    57  45  62 W5        30.10S
GREEN BAY      MOSUNNY   59  49  69 SW5       30.11R
MANITOWOC      NOT AVBL
APPLETON       MOSUNNY   57  46  67 W6        30.12S
CLINTONVILLE   PTSUNNY   61  41  48 NW3       30.10S
OSHKOSH        SUNNY     58  48  69 W5        30.12R
$$

WIZ032>034-041-042-053>061-160000-
SOUTHWEST WISCONSIN

CITY           SKY/WX    TMP DP  RH WIND       PRES   REMARKS
LA CROSSE      SUNNY     62  47  57 NW10      30.16S
SPARTA         MOSUNNY   60  45  57 NW6       30.16S
VIROQUA        FAIR      57  45  65 N9        30.16S
BOSCOBEL       SUNNY     61  44  53 N5        30.16S
PRAIRIE DU CHI SUNNY     59  42  53 N5        30.16S
PLATTEVILLE    CLOUDY    56  49  77 CALM      30.17R
$$

WIZ056-057-062-063-064-067-068-160000-
SOUTH CENTRAL WISCONSIN

CITY           SKY/WX    TMP DP  RH WIND       PRES   REMARKS
BARABOO/DELLS    N/A     57  42  57 CALM      30.15R
LONE ROCK      NOT AVBL
WATERTOWN      PTSUNNY   54  49  82 N6        30.13R
MADISON        PTSUNNY   57  47  69 NW7       30.15R
MIDDLETON      CLOUDY    59  46  63 N5        30.15S
MONROE         CLOUDY    54  48  82 N7        30.14S
JANESVILLE     PTSUNNY   55  48  76 N8        30.13S
$$

WIZ051-052-058>065-066-070>072-160000-
SOUTHEAST WISCONSIN

CITY           SKY/WX    TMP DP  RH WIND       PRES   REMARKS
MILWAUKEE      PTSUNNY   55  49  80 N3        30.13R
WAUKESHA       PTSUNNY   52  48  87 N5        30.14R
MILWAUKEE/TIMM PTSUNNY   55  46  71 N5        30.13S
RACINE         CLOUDY    54  51  90 N10       30.14R
BURLINGTON     CLOUDY    53  48  84 N8        30.12S
KENOSHA        CLOUDY    54  52  93 N7        30.13R
FOND DU LAC    SUNNY     57  47  69 MISG      30.13R
SHEBOYGAN      PTSUNNY   56  51  84 W6        30.12S
WEST BEND      CLOUDY    54  46  76 NW5       30.12S
JUNEAU         PTSUNNY   55  46  73 NW5       30.15R
$$

LSZ147-162-160000-
LAKE SUPERIOR

STATION/POSITION TIME  TEMP    WIND        PRES    WAVE
                       AIR SEA DIR/SP/G            HT/PER
                 (UTC) (F)     (DEG/KT/KT) (MB)    (FT/S)
W MID LAKE BUOY  2150   51 48  240/ 10/ 12 1019.7F   1/ 4
DEVILS ISLAND    2200   53     240/ 14/ 17 1020.6F
PORT WING        2200   57     250/  8/ 11 1021.0F
SAXON HARBOR     2200   57     270/  3/ 10 1021.0S
$$

LMZ867-665-643>646-160000-
LAKE MICHIGAN

STATION/POSITION TIME  TEMP    WIND        PRES    WAVE
                       AIR SEA DIR/SP/G            HT/PER
                 (UTC) (F)     (DEG/KT/KT) (MB)    (FT/S)
N MID LAKE BUOY  2150   56 60  240/  8/ 10 1018.8S   1
NORTHPORT PIER   2200   62     170/  3/  4 1018.6R
KEWAUNEE LAKESHO 2200   59     300/  4/  7 1018.2F
SHEBOYGAN LAKESH 2200   52 49   CALM  /  1 1020.2S
PORT WASHINGTON  2200   56     300/  4/  6 1020.3S
ATWATER BUOY     2200   55     360/ 10/ 14 1020.8R
MILWAUKEE LAKESH 2200   54     340/  6/  8   N/A
S MID LAKE BUOY  2150   57 65  340/ 19/ 23 1018.8F   2/ 3
KENOSHA   LAKESH 2200   54      10/ 11/ 12 1019.3R
$$

TC  - TEMPERATURE IN CELSIUS
VSB - VISIBILITY IN STATUTE MILES
WCI - WIND CHILL INDEX
HX  - HEAT INDEX




USA.gov is the U.S. government's official web portal to all federal, state and local government web resources and services.